Location: Grand Rapids
(42.9630°N, 85.6680°W)
Time: 03:08:53
(UTC-04:00)

Tiros 1 - All Passes

Search period start: 30 May 2024 00:00
Search period end: 09 June 2024 00:00
Orbit: 624 x 657 km, 48.4° (Epoch: 29 May)

Date Brightness Start Highest point End Pass type
(mag) Time Alt. Az. Time Alt. Az. Time Alt. Az.
30 May - 09:04:58 10° S 09:08:24 20° SE 09:11:52 10° E daylight
30 May - 10:45:15 10° WSW 10:49:58 83° SSE 10:54:45 10° ENE daylight
30 May - 12:27:46 10° W 12:32:21 46° N 12:36:58 10° ENE daylight
30 May - 14:10:22 10° WNW 14:15:01 50° NNE 14:19:40 10° E daylight
30 May - 15:52:31 10° WNW 15:57:16 67° SSW 16:02:00 10° SE daylight
30 May - 17:35:57 10° W 17:38:40 15° SW 17:41:23 10° SSW daylight
31 May - 09:27:39 10° SSW 09:32:02 40° SE 09:36:29 10° ENE daylight
31 May - 11:09:19 10° W 11:14:00 63° NNW 11:18:45 10° ENE daylight
31 May - 12:52:03 10° WNW 12:56:36 43° N 13:01:10 10° ENE daylight
31 May - 14:34:24 10° WNW 14:39:10 69° NNE 14:43:55 10° ESE daylight
31 May - 16:16:43 10° WNW 16:21:03 35° SW 16:25:23 10° SSE daylight
01 Jun - 08:11:18 10° S 08:14:23 18° SE 08:17:30 10° E daylight
01 Jun - 09:51:10 10° SW 09:55:51 75° SSE 10:00:37 10° ENE daylight
01 Jun - 11:33:35 10° W 11:38:10 47° N 11:42:48 10° ENE daylight
01 Jun - 13:16:14 10° WNW 13:20:51 48° N 13:25:29 10° E daylight
01 Jun - 14:58:23 10° WNW 15:03:09 75° SSW 15:07:55 10° SE daylight
01 Jun - 16:41:30 10° W 16:44:39 18° SW 16:47:48 10° S daylight
02 Jun - 08:33:43 10° SSW 08:37:59 35° SE 08:42:17 10° ENE daylight
02 Jun - 10:15:10 10° WSW 10:19:52 68° NNW 10:24:37 10° ENE daylight
02 Jun - 11:57:53 10° WNW 12:02:25 43° N 12:06:59 10° ENE daylight
02 Jun - 13:40:16 10° WNW 13:45:00 64° NNE 13:49:46 10° ESE daylight
02 Jun - 15:22:31 10° WNW 15:26:59 40° SW 15:31:26 10° SSE daylight
03 Jun - 07:17:43 10° SSE 07:20:22 15° SE 07:23:01 10° E daylight
03 Jun - 08:57:06 10° SW 09:01:45 67° SSE 09:06:28 10° ENE daylight
03 Jun - 10:39:25 10° W 10:44:01 49° NNW 10:48:39 10° ENE daylight
03 Jun - 12:22:05 10° WNW 12:26:40 46° N 12:31:16 10° E daylight
03 Jun - 14:04:15 10° WNW 14:09:03 82° SSW 14:13:49 10° ESE daylight
03 Jun - 15:47:07 10° W 15:50:37 20° SW 15:54:05 10° S daylight
04 Jun - 07:39:49 10° SSW 07:43:54 31° SE 07:48:03 10° ENE daylight
04 Jun - 09:21:01 10° WSW 09:25:43 74° NNW 09:30:28 10° ENE daylight
04 Jun - 11:03:43 10° WNW 11:08:14 43° N 11:12:48 10° ENE daylight
04 Jun - 12:46:09 10° WNW 12:50:51 59° NNE 12:55:34 10° E daylight
04 Jun - 14:28:20 10° WNW 14:32:54 45° SW 14:37:26 10° SE daylight
05 Jun - 06:24:18 10° SSE 06:26:20 13° SE 06:28:22 10° ESE daylight
05 Jun - 08:03:03 10° SW 08:07:39 59° SSE 08:12:19 10° ENE daylight
05 Jun - 09:45:14 10° W 09:49:50 52° NNW 09:54:29 10° ENE daylight
05 Jun - 11:27:55 10° WNW 11:32:29 45° N 11:37:04 10° E daylight
05 Jun - 13:10:07 10° WNW 13:14:54 90° NNE 13:19:41 10° ESE daylight
05 Jun - 14:52:47 10° W 14:56:33 23° SW 15:00:18 10° S daylight
06 Jun - 06:45:57 10° SSW 06:49:50 27° SE 06:53:47 10° E daylight
06 Jun - 08:26:52 10° WSW 08:31:34 81° NNW 08:36:20 10° ENE daylight
06 Jun - 10:09:31 10° WNW 10:14:03 43° N 10:18:36 10° ENE daylight
06 Jun - 11:52:00 10° WNW 11:56:40 56° NNE 12:01:22 10° E daylight
06 Jun - 13:34:10 10° WNW 13:38:47 51° SW 13:43:24 10° SE daylight
06 Jun - 15:18:59 10° WSW 15:20:02 11° SW 15:21:05 10° SW daylight
07 Jun - 05:31:20 10° SE 05:32:19 11° SE 05:33:18 10° ESE visible
07 Jun - 07:09:01 10° SW 07:13:33 52° SE 07:18:08 10° ENE daylight
07 Jun - 08:51:03 10° W 08:55:39 55° NNW 09:00:19 10° ENE daylight
07 Jun - 10:33:46 10° WNW 10:38:17 43° N 10:42:51 10° ENE daylight
07 Jun - 12:15:58 10° WNW 12:20:45 82° NNE 12:25:31 10° ESE daylight
07 Jun - 13:58:30 10° W 14:02:29 27° SW 14:06:27 10° SSE daylight
08 Jun - 05:52:07 10° S 05:55:47 23° SE 05:59:28 10° E daylight
08 Jun - 07:32:45 10° WSW 07:37:25 88° NNW 07:42:10 10° ENE daylight
08 Jun - 09:15:20 10° W 09:19:50 44° N 09:24:24 10° ENE daylight
08 Jun - 10:57:51 10° WNW 11:02:29 52° NNE 11:07:09 10° E daylight
08 Jun - 12:40:00 10° WNW 12:44:40 58° SSW 12:49:20 10° SE daylight
08 Jun - 14:23:56 10° WSW 14:25:59 13° SW 14:28:03 10° SSW daylight
